User: anonymous
Location: Vancouver
(49.2500°N, 123.1330°W)
Time: 13:35:33
(UTC-07:00)
Language:

Cosmos 2333 Rocket - Orbit

View from above orbital plane
View from above orbital plane
View from above satellite
View from above satellite

Ground track
Ground track

The orbit data is extracted from the following two-line orbital elements,

1 24298U 96051B   14206.40351351 -.00000147  00000-0 -52986-4 0  5041
2 24298 070.8665 131.4689 0017586 309.2205 189.3134 14.12471885922462
Epoch (UTC): 25 July 2014 09:41:03
Eccentricity: 0.0017586
inclination: 70.8665°
perigee height: 838 km
apogee height: 863 km
right ascension of ascending node: 131.4689°
argument of perigee: 309.2205°
revolutions per day: 14.12471885
mean anomaly at epoch: 189.3134°
orbit number at epoch: 92246

The dashed part of the orbit path shows where the satellite is in the earth's shadow,  

DLR